Regional Weather Roundup
Issued by NWS

Home | Current Version | Previous Version | Text Only | Print | Product List | Glossary On
Versions: 1 2 3 4 5 6 7 8 9 10 11 12 13 14 15 16 17 18 19 20 21 22 23 24 25 26 27 28 29 30 31 32 33 34 35 36 37 38 39 40 41 42 43 44 45 46 47 48 49 50
388
ASUS44 KJAN 011703
RWRMS

MISSISSIPPI HOURLY WEATHER ROUNDUP
NATIONAL WEATHER SERVICE JACKSON MS
1100 AM CST SUN FEB 01 2015

NOTE: "FAIR: INDICATES FEW OR NO CLOUDS BELOW 12,000 FEET WITH NO
SIGNIFICANT WEATHER AND/OR OBSTRUCTIONS TO VISIBILITY.

MSZ001>002-007>008-010>013-018>021-025>028-034>036-011800-
NORTHWEST MISSISSIPPI

CITY           SKY/WX    TMP DP  RH WIND       PRES   REMARKS
CLARKSDALE     CLOUDY    55  55 100 S17G25    29.84F
CLEVELAND      CLOUDY    57  57  98 S17G23    29.85F
GREENWOOD      CLOUDY    58  54  86 S15G24    29.89F
GREENVILLE     CLOUDY    60  56  86 S20       29.86F
GRENADA        LGT RAIN  55  54  94 S16       29.89F
OLIVE BRANCH   RAIN      52  52 100 S17G24    29.81F
OXFORD         CLOUDY    52  50  93 S12G21    29.88F FOG
TUNICA         LGT RAIN  55  54  94 S20G26    29.83S
$$

MSZ003>006-009-014>017-022>024-029>033-037>039-011800-
NORTHEAST MISSISSIPPI

CITY           SKY/WX    TMP DP  RH WIND       PRES   REMARKS
COLUMBUS AFB   CLOUDY    49  47  95 S12       29.96F
CORINTH        CLOUDY    52  50  93 S15G23    29.86F FOG
GOLDN TRIANGLE CLOUDY    46  43  87 S12       29.97F
STARKVILLE     CLOUDY    46  46 100 S12       29.96F
TUPELO         CLOUDY    50  47  89 SW21G26   29.92F
$$

MSZ040-058-011800-
CENTRAL MISSISSIPPI

CITY           SKY/WX    TMP DP  RH WIND       PRES   REMARKS
JACKSON INTL   CLOUDY    61  57  87 S12       29.94F
JACKSON HAWKNS CLOUDY    62  57  83 S13       29.94F
MERIDIAN KEY   CLOUDY    56  53  90 S21       29.99F
MERIDIAN NAS   CLOUDY    51  49  92 S6        30.00F
RAYMOND        PTSUNNY   63  57  82 S12G18    29.94F
VICKSBURG      CLOUDY    64  58  80 S8        29.93F
$$

MSZ059>079-011800-
SOUTH MISSISSIPPI

CITY           SKY/WX    TMP DP  RH WIND       PRES   REMARKS
BROOKHAVEN     PTSUNNY   64  59  82 S14G20    29.98F
HATTIESBURG    CLOUDY    64  59  83 S12       30.02F
MCCOMB         CLOUDY    63  58  83 S9        29.99S
NATCHEZ        CLOUDY    64  57  77 S13G18    29.95F
PINE BELT      PTSUNNY   61  55  82 S10G18    30.01F
$$

MSZ080>082-011800-
COASTAL MISSISSIPPI

CITY           SKY/WX    TMP DP  RH WIND       PRES   REMARKS
BAY ST LOUIS   PTSUNNY   64  59  82 S10       30.02F
BILOXI         LGT RAIN  63  63 100 SW10      30.02F
PASCAGOULA     RAIN      63  62  97 S5        30.03F FOG
GULFPORT       CLOUDY    61  60  97 S5        30.02F
$$



USA.gov is the U.S. government's official web portal to all federal, state and local government web resources and services.